,,,PA_Meas_PMT16A,,PR_Meas_QMR101_102,,RH_Meas_QMH101,,SR_Meas_QMS101,,TA_Meas_QMH101,,GenWind,,GenWind,
date,time,status,PA,status,PR,status,RH,status,SR,status,TA,status,DirAvg,status,SpdAvg,
2011-03-17, 00:00:04,VALID,1008.27,VALID,0,VALID,102.749,VALID,0,VALID,24.2981,VALID,200,VALID,0,
2011-03-17, 00:01:04,VALID,1008.28,VALID,0,VALID,102.818,VALID,0,VALID,24.2591,VALID,200,VALID,0,
2011-03-17, 00:02:04,VALID,1008.28,VALID,0,VALID,102.91,VALID,0,VALID,24.2378,VALID,200,VALID,0,
2011-03-17, 00:03:04,VALID,1008.28,VALID,0,VALID,102.963,VALID,0,VALID,24.2202,VALID,200,VALID,0,
2011-03-17, 00:04:04,VALID,1008.26,VALID,0,VALID,103.047,VALID,0,VALID,24.1793,VALID,200,VALID,0,
2011-03-17, 00:05:04,VALID,1008.26,VALID,0,VALID,103.093,VALID,0,VALID,24.1599,VALID,200,VALID,0,
2011-03-17, 00:06:04,VALID,1008.24,VALID,0,VALID,103.169,VALID,0,VALID,24.1617,VALID,200,VALID,0,
2011-03-17, 00:07:04,VALID,1008.23,VALID,0,VALID,103.192,VALID,0,VALID,24.1422,VALID,200,VALID,0,
2011-03-17, 00:08:04,VALID,1008.23,VALID,0,VALID,103.245,VALID,0,VALID,24.1209,VALID,200,VALID,0,
2011-03-17, 00:09:04,VALID,1008.22,VALID,0,VALID,103.321,VALID,0,VALID,24.1227,VALID,200,VALID,0,
2011-03-17, 00:10:04,VALID,1008.2,VALID,0,VALID,103.375,VALID,0,VALID,24.1227,VALID,200,VALID,0,
2011-03-17, 00:11:04,VALID,1008.21,VALID,0,VALID,103.413,VALID,0,VALID,24.0837,VALID,200,VALID,0,
2011-03-17, 00:12:04,VALID,1008.19,VALID,0,VALID,103.436,VALID,0,VALID,24.0624,VALID,200,VALID,0,
2011-03-17, 00:13:04,VALID,1008.2,VALID,0,VALID,103.474,VALID,0,VALID,24.0643,VALID,200,VALID,0,
2011-03-17, 00:14:04,VALID,1008.19,VALID,0,VALID,103.535,VALID,0,VALID,24.0643,VALID,200,VALID,0,
2011-03-17, 00:15:04,VALID,1008.19,VALID,0,VALID,103.542,VALID,0,VALID,24.0643,VALID,200,VALID,0,
2011-03-17, 00:16:04,VALID,1008.19,VALID,0,VALID,103.558,VALID,0,VALID,24.0253,VALID,200,VALID,0,
2011-03-17, 00:17:04,VALID,1008.18,VALID,0,VALID,103.596,VALID,0,VALID,24.004,VALID,200,VALID,0,
2011-03-17, 00:18:04,VALID,1008.19,VALID,0,VALID,103.626,VALID,0,VALID,23.9845,VALID,200,VALID,0,
2011-03-17, 00:19:04,VALID,1008.17,VALID,0,VALID,103.664,VALID,0,VALID,24.0058,VALID,200,VALID,0,
2011-03-17, 00:20:04,VALID,1008.15,VALID,0,VALID,103.68,VALID,0,VALID,23.9863,VALID,200,VALID,0,
2011-03-17, 00:21:04,VALID,1008.16,VALID,0,VALID,103.703,VALID,0,VALID,23.9455,VALID,200,VALID,0,
2011-03-17, 00:22:04,VALID,1008.13,VALID,0,VALID,103.695,VALID,0,VALID,23.9473,VALID,200,VALID,0,
2011-03-17, 00:23:04,VALID,1008.14,VALID,0,VALID,103.726,VALID,0,VALID,23.9278,VALID,200,VALID,0,
2011-03-17, 00:24:04,VALID,1008.13,VALID,0,VALID,103.741,VALID,0,VALID,23.9473,VALID,200,VALID,0,
2011-03-17, 00:25:04,VALID,1008.11,VALID,0,VALID,103.771,VALID,0,VALID,23.9278,VALID,200,VALID,0,
2011-03-17, 00:26:04,VALID,1008.14,VALID,0,VALID,103.771,VALID,0,VALID,23.9065,VALID,200,VALID,0,
2011-03-17, 00:27:04,VALID,1008.14,VALID,0,VALID,103.794,VALID,0,VALID,23.9084,VALID,200,VALID,0,
2011-03-17, 00:28:04,VALID,1008.14,VALID,0,VALID,103.802,VALID,0,VALID,23.9084,VALID,200,VALID,0,
2011-03-17, 00:29:04,VALID,1008.15,VALID,0,VALID,103.802,VALID,0,VALID,23.8889,VALID,200,VALID,0,
2011-03-17, 00:30:04,VALID,1008.14,VALID,0,VALID,103.802,VALID,0,VALID,23.8889,VALID,200,VALID,0,
2011-03-17, 00:31:04,VALID,1008.12,VALID,0,VALID,103.802,VALID,0,VALID,23.8889,VALID,200,VALID,0,
2011-03-17, 00:32:04,VALID,1008.11,VALID,0,VALID,103.787,VALID,0,VALID,23.8694,VALID,200,VALID,0,
2011-03-17, 00:33:04,VALID,1008.1,VALID,0,VALID,103.809,VALID,0,VALID,23.8499,VALID,200,VALID,0,
2011-03-17, 00:34:04,VALID,1008.07,VALID,0,VALID,103.809,VALID,0,VALID,23.8694,VALID,200,VALID,0,
2011-03-17, 00:35:04,VALID,1008.08,VALID,0,VALID,103.84,VALID,0,VALID,23.8694,VALID,200,VALID,0,
2011-03-17, 00:36:04,VALID,1008.07,VALID,0,VALID,103.809,VALID,0,VALID,23.8499,VALID,200,VALID,0,
2011-03-17, 00:37:04,VALID,1008.07,VALID,0,VALID,103.84,VALID,0,VALID,23.8499,VALID,200,VALID,0,
2011-03-17, 00:38:04,VALID,1008.05,VALID,0,VALID,103.825,VALID,0,VALID,23.8517,VALID,200,VALID,0,
2011-03-17, 00:39:04,VALID,1008.06,VALID,0,VALID,103.832,VALID,0,VALID,23.8304,VALID,200,VALID,0,
2011-03-17, 00:40:04,VALID,1008.04,VALID,0,VALID,103.825,VALID,0,VALID,23.8304,VALID,200,VALID,0,
2011-03-17, 00:41:04,VALID,1008.08,VALID,0,VALID,103.84,VALID,0,VALID,23.8109,VALID,200,VALID,0,
2011-03-17, 00:42:04,VALID,1008.06,VALID,0,VALID,103.848,VALID,0,VALID,23.8109,VALID,200,VALID,0,
2011-03-17, 00:43:04,VALID,1008.07,VALID,0,VALID,103.84,VALID,0,VALID,23.7914,VALID,200,VALID,0,
2011-03-17, 00:44:04,VALID,1008.04,VALID,0,VALID,103.87,VALID,0,VALID,23.7914,VALID,200,VALID,0.151172,
2011-03-17, 00:45:04,VALID,1008.03,VALID,0,VALID,103.855,VALID,0,VALID,23.7701,VALID,200,VALID,0.317969,
2011-03-17, 00:46:04,VALID,1008.03,VALID,0,VALID,103.87,VALID,0,VALID,23.772,VALID,200,VALID,0.246484,
2011-03-17, 00:47:04,VALID,1008.03,VALID,0,VALID,103.893,VALID,0,VALID,23.7312,VALID,200,VALID,0.298438,
2011-03-17, 00:48:04,VALID,1008.02,VALID,0,VALID,103.878,VALID,0,VALID,23.7525,VALID,200,VALID,0.194141,
2011-03-17, 00:49:04,VALID,1008.01,VALID,0,VALID,103.893,VALID,0,VALID,23.7312,VALID,200,VALID,0,
2011-03-17, 00:50:04,VALID,1008,VALID,0,VALID,103.916,VALID,0,VALID,23.772,VALID,200,VALID,0,
2011-03-17, 00:51:04,VALID,1007.98,VALID,0,VALID,103.931,VALID,0,VALID,23.7525,VALID,200,VALID,0,
2011-03-17, 00:52:04,VALID,1007.98,VALID,0,VALID,103.916,VALID,0,VALID,23.7525,VALID,200,VALID,0,
2011-03-17, 00:53:04,VALID,1007.97,VALID,0,VALID,103.947,VALID,0,VALID,23.7525,VALID,197,VALID,0.298047,
2011-03-17, 00:54:04,VALID,1007.95,VALID,0,VALID,103.924,VALID,0,VALID,23.7525,VALID,96,VALID,0.5375,
2011-03-17, 00:55:04,VALID,1007.93,VALID,0,VALID,103.924,VALID,0.105969,VALID,23.7525,VALID,96,VALID,0,
2011-03-17, 00:56:04,VALID,1007.92,VALID,0,VALID,103.893,VALID,0,VALID,23.7312,VALID,96,VALID,0,
2011-03-17, 00:57:04,VALID,1007.91,VALID,0,VALID,103.909,VALID,0,VALID,23.7525,VALID,96,VALID,0.265234,
2011-03-17, 00:58:04,VALID,1007.89,VALID,0,VALID,103.924,VALID,0,VALID,23.7525,VALID,67,VALID,0.282813,
2011-03-17, 00:59:04,VALID,1007.87,VALID,0,VALID,103.901,VALID,0,VALID,23.7312,VALID,67,VALID,0.0261719,
2011-03-17, 01:00:04,VALID,1007.88,VALID,0,VALID,103.848,VALID,0,VALID,23.733,VALID,67,VALID,0.0121094,
2011-03-17, 01:01:04,VALID,1007.86,VALID,0,VALID,103.825,VALID,0,VALID,23.7135,VALID,67,VALID,0.0960938,
2011-03-17, 01:02:04,VALID,1007.86,VALID,0,VALID,103.832,VALID,0,VALID,23.694,VALID,67,VALID,0,
2011-03-17, 01:03:04,VALID,1007.84,VALID,0,VALID,103.825,VALID,0,VALID,23.694,VALID,67,VALID,0.246875,
2011-03-17, 01:04:04,VALID,1007.81,VALID,0,VALID,103.825,VALID,0,VALID,23.6745,VALID,67,VALID,0.269141,
2011-03-17, 01:05:04,VALID,1007.8,VALID,0,VALID,103.863,VALID,0,VALID,23.6338,VALID,67,VALID,0.261719,
2011-03-17, 01:06:04,VALID,1007.81,VALID,0,VALID,103.878,VALID,0,VALID,23.655,VALID,2,VALID,0.421875,
2011-03-17, 01:07:04,VALID,1007.79,VALID,0,VALID,103.901,VALID,0,VALID,23.6338,VALID,2,VALID,0.209766,
2011-03-17, 01:08:04,VALID,1007.76,VALID,0,VALID,103.893,VALID,0.105969,VALID,23.6532,VALID,2,VALID,0.281641,
2011-03-17, 01:09:04,VALID,1007.76,VALID,0,VALID,103.924,VALID,0.105969,VALID,23.6338,VALID,2,VALID,0.165234,
2011-03-17, 01:10:04,VALID,1007.79,VALID,0,VALID,103.916,VALID,0.105969,VALID,23.6338,VALID,2,VALID,0,
2011-03-17, 01:11:04,VALID,1007.77,VALID,0,VALID,103.901,VALID,0,VALID,23.6143,VALID,2,VALID,0,
2011-03-17, 01:12:04,VALID,1007.76,VALID,0,VALID,103.931,VALID,0.105969,VALID,23.6143,VALID,2,VALID,0,
2011-03-17, 01:13:04,VALID,1007.72,VALID,0,VALID,103.954,VALID,0.105969,VALID,23.5948,VALID,2,VALID,0,
2011-03-17, 01:14:04,VALID,1007.71,VALID,0,VALID,103.954,VALID,0,VALID,23.5948,VALID,2,VALID,0,
2011-03-17, 01:15:04,VALID,1007.69,VALID,0,VALID,103.985,VALID,0,VALID,23.5966,VALID,2,VALID,0,
2011-03-17, 01:16:04,VALID,1007.67,VALID,0,VALID,103.97,VALID,0,VALID,23.5966,VALID,2,VALID,0,
2011-03-17, 01:17:04,VALID,1007.67,VALID,0,VALID,103.985,VALID,0,VALID,23.5771,VALID,2,VALID,0,
2011-03-17, 01:18:04,VALID,1007.65,VALID,0,VALID,103.992,VALID,0,VALID,23.5771,VALID,2,VALID,0,
2011-03-17, 01:19:04,VALID,1007.64,VALID,0,VALID,103.992,VALID,0,VALID,23.5771,VALID,2,VALID,0,
2011-03-17, 01:20:04,VALID,1007.61,VALID,0,VALID,103.977,VALID,0,VALID,23.5576,VALID,2,VALID,0,
2011-03-17, 01:21:04,VALID,1007.61,VALID,0,VALID,103.992,VALID,0,VALID,23.5789,VALID,2,VALID,0,
2011-03-17, 01:22:04,VALID,1007.61,VALID,0,VALID,104,VALID,0,VALID,23.5576,VALID,2,VALID,0,
2011-03-17, 01:23:04,VALID,1007.6,VALID,0,VALID,104,VALID,0.105969,VALID,23.5558,VALID,2,VALID,0,
2011-03-17, 01:24:04,VALID,1007.57,VALID,0,VALID,104,VALID,0,VALID,23.5363,VALID,2,VALID,0,
2011-03-17, 01:25:04,VALID,1007.56,VALID,0,VALID,104,VALID,0.105969,VALID,23.5363,VALID,2,VALID,0,
2011-03-17, 01:26:04,VALID,1007.57,VALID,0,VALID,104,VALID,0.105969,VALID,23.5363,VALID,2,VALID,0,
2011-03-17, 01:27:04,VALID,1007.54,VALID,0,VALID,104,VALID,0,VALID,23.5169,VALID,2,VALID,0,
2011-03-17, 01:28:04,VALID,1007.53,VALID,0,VALID,104,VALID,0,VALID,23.5381,VALID,2,VALID,0,
2011-03-17, 01:29:04,VALID,1007.53,VALID,0,VALID,104,VALID,0,VALID,23.5186,VALID,2,VALID,0,
2011-03-17, 01:30:04,VALID,1007.48,VALID,0,VALID,104,VALID,0,VALID,23.5186,VALID,2,VALID,0,
2011-03-17, 01:31:04,VALID,1007.48,VALID,0,VALID,104,VALID,0,VALID,23.5381,VALID,2,VALID,0,
2011-03-17, 01:32:04,VALID,1007.48,VALID,0,VALID,104,VALID,0.105969,VALID,23.4974,VALID,2,VALID,0.247656,
2011-03-17, 01:33:04,VALID,1007.48,VALID,0,VALID,104,VALID,0,VALID,23.5381,VALID,2,VALID,0.216797,
2011-03-17, 01:34:04,VALID,1007.5,VALID,0,VALID,104,VALID,0,VALID,23.5576,VALID,2,VALID,0.298828,
2011-03-17, 01:35:04,VALID,1007.5,VALID,0,VALID,104,VALID,0,VALID,23.5558,VALID,2,VALID,0.281641,
2011-03-17, 01:36:04,VALID,1007.54,VALID,0,VALID,104,VALID,0,VALID,23.5753,VALID,5,VALID,0.554688,
2011-03-17, 01:37:04,VALID,1007.56,VALID,0,VALID,104,VALID,0,VALID,23.5966,VALID,16,VALID,0.0375,
2011-03-17, 01:38:04,VALID,1007.53,VALID,0,VALID,104,VALID,0.105969,VALID,23.5558,VALID,16,VALID,0.207031,
2011-03-17, 01:39:04,VALID,1007.55,VALID,0,VALID,104,VALID,0.105969,VALID,23.5753,VALID,16,VALID,0.437891,
2011-03-17, 01:40:04,VALID,1007.58,VALID,0,VALID,104,VALID,0,VALID,23.5771,VALID,16,VALID,0,
2011-03-17, 01:41:04,VALID,1007.54,VALID,0,VALID,104,VALID,0,VALID,23.5363,VALID,16,VALID,0.355859,
2011-03-17, 01:42:04,VALID,1007.57,VALID,0,VALID,104,VALID,0,VALID,23.5558,VALID,16,VALID,0.170312,
2011-03-17, 01:43:04,VALID,1007.53,VALID,0,VALID,104,VALID,0.105969,VALID,23.5558,VALID,16,VALID,0.0785156,
2011-03-17, 01:44:04,VALID,1007.53,VALID,0,VALID,104,VALID,0,VALID,23.5363,VALID,16,VALID,0,
2011-03-17, 01:45:04,VALID,1007.5,VALID,0,VALID,104,VALID,0,VALID,23.5169,VALID,16,VALID,0.0234375,
2011-03-17, 01:46:04,VALID,1007.5,VALID,0,VALID,103.977,VALID,0.105969,VALID,23.5169,VALID,16,VALID,0,
2011-03-17, 01:47:04,VALID,1007.51,VALID,0,VALID,104,VALID,0,VALID,23.5381,VALID,16,VALID,0,
2011-03-17, 01:48:04,VALID,1007.5,VALID,0,VALID,104,VALID,0,VALID,23.4974,VALID,16,VALID,0,
2011-03-17, 01:49:04,VALID,1007.47,VALID,0,VALID,104,VALID,0,VALID,23.4992,VALID,16,VALID,0,
2011-03-17, 01:50:04,VALID,1007.49,VALID,0,VALID,104,VALID,0.105969,VALID,23.4992,VALID,16,VALID,0,
2011-03-17, 01:51:04,VALID,1007.45,VALID,0,VALID,104,VALID,0,VALID,23.4992,VALID,16,VALID,0,
2011-03-17, 01:52:04,VALID,1007.44,VALID,0,VALID,104,VALID,0,VALID,23.4992,VALID,16,VALID,0,
2011-03-17, 01:53:04,VALID,1007.43,VALID,0,VALID,104,VALID,0,VALID,23.4584,VALID,16,VALID,0,
2011-03-17, 01:54:04,VALID,1007.46,VALID,0,VALID,104,VALID,0.105969,VALID,23.4797,VALID,16,VALID,0,
2011-03-17, 01:55:04,VALID,1007.47,VALID,0,VALID,104,VALID,0,VALID,23.4584,VALID,16,VALID,0,
2011-03-17, 01:56:04,VALID,1007.47,VALID,0,VALID,104,VALID,0,VALID,23.4389,VALID,16,VALID,0,
2011-03-17, 01:57:04,VALID,1007.48,VALID,0,VALID,104,VALID,0,VALID,23.4602,VALID,16,VALID,0,
2011-03-17, 01:58:04,VALID,1007.45,VALID,0,VALID,104,VALID,0,VALID,23.4602,VALID,16,VALID,0,
2011-03-17, 01:59:04,VALID,1007.46,VALID,0,VALID,104,VALID,0,VALID,23.4407,VALID,16,VALID,0,
2011-03-17, 02:00:04,VALID,1007.45,VALID,0,VALID,104,VALID,0,VALID,23.4389,VALID,16,VALID,0,
2011-03-17, 02:01:05,VALID,1007.45,VALID,0,VALID,104,VALID,0,VALID,23.4407,VALID,16,VALID,0.157813,
2011-03-17, 02:02:05,VALID,1007.45,VALID,0,VALID,104,VALID,0.105969,VALID,23.4407,VALID,16,VALID,0.240234,
2011-03-17, 02:03:05,VALID,1007.46,VALID,0,VALID,104,VALID,0,VALID,23.4389,VALID,16,VALID,0.333594,
2011-03-17, 02:04:05,VALID,1007.47,VALID,0,VALID,104,VALID,0,VALID,23.4407,VALID,16,VALID,0,
2011-03-17, 02:05:05,VALID,1007.48,VALID,0,VALID,104,VALID,0.105969,VALID,23.4194,VALID,16,VALID,0,
2011-03-17, 02:06:05,VALID,1007.5,VALID,0,VALID,104,VALID,0,VALID,23.4,VALID,16,VALID,0,
2011-03-17, 02:07:05,VALID,1007.5,VALID,0,VALID,104,VALID,0,VALID,23.4017,VALID,16,VALID,0,
2011-03-17, 02:08:05,VALID,1007.54,VALID,0,VALID,104,VALID,0.105969,VALID,23.4017,VALID,16,VALID,0,
2011-03-17, 02:09:05,VALID,1007.52,VALID,0,VALID,104,VALID,0,VALID,23.3805,VALID,16,VALID,0,
2011-03-17, 02:10:05,VALID,1007.53,VALID,0,VALID,104,VALID,0.105969,VALID,23.4017,VALID,16,VALID,0.000390625,
2011-03-17, 02:11:05,VALID,1007.54,VALID,0,VALID,104,VALID,0,VALID,23.3805,VALID,16,VALID,0.0253906,
2011-03-17, 02:12:05,VALID,1007.56,VALID,0,VALID,104,VALID,0,VALID,23.3823,VALID,16,VALID,0,
2011-03-17, 02:13:05,VALID,1007.52,VALID,0,VALID,104,VALID,0,VALID,23.3628,VALID,16,VALID,0,
2011-03-17, 02:14:05,VALID,1007.54,VALID,0,VALID,104,VALID,0,VALID,23.3433,VALID,16,VALID,0.0324219,
2011-03-17, 02:15:05,VALID,1007.53,VALID,0,VALID,104,VALID,0,VALID,23.3415,VALID,16,VALID,0,
2011-03-17, 02:16:05,VALID,1007.53,VALID,0,VALID,104,VALID,0,VALID,23.322,VALID,16,VALID,0,
2011-03-17, 02:17:05,VALID,1007.53,VALID,0,VALID,104,VALID,0,VALID,23.322,VALID,16,VALID,0,
2011-03-17, 02:18:05,VALID,1007.49,VALID,0,VALID,104,VALID,0.105969,VALID,23.322,VALID,16,VALID,0,
2011-03-17, 02:19:05,VALID,1007.51,VALID,0,VALID,104,VALID,0.105969,VALID,23.3415,VALID,16,VALID,0,
2011-03-17, 02:20:05,VALID,1007.46,VALID,0,VALID,104,VALID,0.105969,VALID,23.3415,VALID,16,VALID,0,
2011-03-17, 02:21:05,VALID,1007.48,VALID,0,VALID,104,VALID,0.105969,VALID,23.3433,VALID,16,VALID,0,
2011-03-17, 02:22:05,VALID,1007.46,VALID,0,VALID,104,VALID,0.105969,VALID,23.322,VALID,16,VALID,0,
2011-03-17, 02:23:05,VALID,1007.43,VALID,0,VALID,104,VALID,0.105969,VALID,23.3238,VALID,16,VALID,0,
2011-03-17, 02:24:05,VALID,1007.41,VALID,0,VALID,104,VALID,0,VALID,23.3043,VALID,16,VALID,0,
2011-03-17, 02:25:05,VALID,1007.45,VALID,0,VALID,104,VALID,0,VALID,23.2831,VALID,16,VALID,0,
2011-03-17, 02:26:05,VALID,1007.45,VALID,0,VALID,104,VALID,0,VALID,23.2848,VALID,16,VALID,0,
2011-03-17, 02:27:05,VALID,1007.46,VALID,0,VALID,104,VALID,0,VALID,23.2848,VALID,16,VALID,0,
2011-03-17, 02:28:05,VALID,1007.48,VALID,0,VALID,104,VALID,0,VALID,23.2636,VALID,16,VALID,0,
2011-03-17, 02:29:05,VALID,1007.44,VALID,0,VALID,104,VALID,0,VALID,23.2848,VALID,16,VALID,0,
2011-03-17, 02:30:05,VALID,1007.47,VALID,0,VALID,104,VALID,0,VALID,23.3043,VALID,16,VALID,0,
2011-03-17, 02:31:05,VALID,1007.45,VALID,0,VALID,104,VALID,0.105969,VALID,23.2831,VALID,16,VALID,0,
2011-03-17, 02:32:05,VALID,1007.48,VALID,0,VALID,104,VALID,0,VALID,23.3043,VALID,16,VALID,0,
2011-03-17, 02:33:05,VALID,1007.49,VALID,0,VALID,104,VALID,0,VALID,23.2636,VALID,16,VALID,0,
2011-03-17, 02:34:05,VALID,1007.5,VALID,0,VALID,104,VALID,0,VALID,23.2636,VALID,16,VALID,0,
2011-03-17, 02:35:05,VALID,1007.51,VALID,0,VALID,104,VALID,0,VALID,23.2636,VALID,16,VALID,0,
2011-03-17, 02:36:05,VALID,1007.52,VALID,0,VALID,104,VALID,0,VALID,23.2636,VALID,16,VALID,0,
2011-03-17, 02:37:05,VALID,1007.53,VALID,0,VALID,104,VALID,0.105969,VALID,23.2441,VALID,16,VALID,0,
2011-03-17, 02:38:05,VALID,1007.56,VALID,0,VALID,104,VALID,0,VALID,23.2441,VALID,16,VALID,0,
2011-03-17, 02:39:05,VALID,1007.59,VALID,0,VALID,104,VALID,0.105969,VALID,23.2636,VALID,16,VALID,0,
2011-03-17, 02:40:05,VALID,1007.6,VALID,0,VALID,104,VALID,0.105969,VALID,23.2636,VALID,16,VALID,0,
2011-03-17, 02:41:05,VALID,1007.61,VALID,0,VALID,104,VALID,0.105969,VALID,23.2229,VALID,16,VALID,0,
2011-03-17, 02:42:05,VALID,1007.63,VALID,0,VALID,104,VALID,0.105969,VALID,23.2441,VALID,16,VALID,0,
2011-03-17, 02:43:05,VALID,1007.64,VALID,0,VALID,104,VALID,0.105969,VALID,23.2848,VALID,16,VALID,0,
2011-03-17, 02:44:05,VALID,1007.63,VALID,0,VALID,104,VALID,0.105969,VALID,23.2831,VALID,16,VALID,0,
2011-03-17, 02:45:05,VALID,1007.61,VALID,0,VALID,104,VALID,0.105969,VALID,23.2831,VALID,16,VALID,0,
2011-03-17, 02:46:05,VALID,1007.62,VALID,0,VALID,104,VALID,0,VALID,23.3043,VALID,16,VALID,0,
2011-03-17, 02:47:05,VALID,1007.6,VALID,0,VALID,104,VALID,0,VALID,23.2636,VALID,16,VALID,0,
2011-03-17, 02:48:05,VALID,1007.58,VALID,0,VALID,104,VALID,0,VALID,23.2848,VALID,16,VALID,0,
2011-03-17, 02:49:05,VALID,1007.59,VALID,0,VALID,104,VALID,0,VALID,23.2636,VALID,16,VALID,0,
2011-03-17, 02:50:05,VALID,1007.6,VALID,0,VALID,104,VALID,0.105969,VALID,23.2654,VALID,16,VALID,0,
2011-03-17, 02:51:05,VALID,1007.62,VALID,0,VALID,104,VALID,0,VALID,23.2441,VALID,16,VALID,0,
2011-03-17, 02:52:05,VALID,1007.62,VALID,0,VALID,104,VALID,0.105969,VALID,23.2636,VALID,16,VALID,0,
2011-03-17, 02:53:05,VALID,1007.62,VALID,0,VALID,104,VALID,0,VALID,23.2636,VALID,16,VALID,0,
2011-03-17, 02:54:05,VALID,1007.61,VALID,0,VALID,104,VALID,0,VALID,23.2636,VALID,16,VALID,0,
2011-03-17, 02:55:05,VALID,1007.6,VALID,0,VALID,104,VALID,0,VALID,23.2654,VALID,16,VALID,0,
2011-03-17, 02:56:05,VALID,1007.59,VALID,0,VALID,104,VALID,0,VALID,23.2848,VALID,16,VALID,0,
2011-03-17, 02:57:05,VALID,1007.58,VALID,0,VALID,104,VALID,0,VALID,23.2459,VALID,16,VALID,0,
2011-03-17, 02:58:05,VALID,1007.55,VALID,0,VALID,104,VALID,0.105969,VALID,23.2441,VALID,16,VALID,0,
2011-03-17, 02:59:05,VALID,1007.54,VALID,0,VALID,104,VALID,0,VALID,23.2654,VALID,16,VALID,0,
2011-03-17, 03:00:05,VALID,1007.53,VALID,0,VALID,104,VALID,0,VALID,23.2246,VALID,16,VALID,0,
2011-03-17, 03:01:05,VALID,1007.54,VALID,0,VALID,104,VALID,0.105969,VALID,23.2441,VALID,16,VALID,0,
2011-03-17, 03:02:05,VALID,1007.54,VALID,0,VALID,104,VALID,0,VALID,23.2654,VALID,16,VALID,0,
2011-03-17, 03:03:05,VALID,1007.53,VALID,0,VALID,104,VALID,0,VALID,23.2636,VALID,16,VALID,0,
2011-03-17, 03:04:05,VALID,1007.52,VALID,0,VALID,104,VALID,0,VALID,23.2636,VALID,16,VALID,0,
2011-03-17, 03:05:05,VALID,1007.49,VALID,0,VALID,104,VALID,0.105969,VALID,23.2654,VALID,16,VALID,0,
2011-03-17, 03:06:05,VALID,1007.49,VALID,0,VALID,104,VALID,0,VALID,23.2636,VALID,16,VALID,0.146875,
2011-03-17, 03:07:05,VALID,1007.47,VALID,0,VALID,104,VALID,0,VALID,23.2848,VALID,16,VALID,0.290234,
2011-03-17, 03:08:05,VALID,1007.44,VALID,0,VALID,104,VALID,0,VALID,23.2848,VALID,16,VALID,0.343359,
2011-03-17, 03:09:05,VALID,1007.44,VALID,0,VALID,104,VALID,0,VALID,23.3043,VALID,16,VALID,0.323047,
2011-03-17, 03:10:05,VALID,1007.46,VALID,0,VALID,104,VALID,0,VALID,23.3238,VALID,16,VALID,0.270703,
2011-03-17, 03:11:05,VALID,1007.45,VALID,0,VALID,104,VALID,0,VALID,23.322,VALID,16,VALID,0.266016,
2011-03-17, 03:12:05,VALID,1007.47,VALID,0,VALID,104,VALID,0.105969,VALID,23.3415,VALID,16,VALID,0,
2011-03-17, 03:13:05,VALID,1007.44,VALID,0,VALID,104,VALID,0,VALID,23.3415,VALID,16,VALID,0,
2011-03-17, 03:14:05,VALID,1007.43,VALID,0,VALID,104,VALID,0,VALID,23.361,VALID,16,VALID,0,
2011-03-17, 03:15:05,VALID,1007.43,VALID,0,VALID,104,VALID,0,VALID,23.361,VALID,16,VALID,0,
2011-03-17, 03:16:05,VALID,1007.42,VALID,0,VALID,104,VALID,0,VALID,23.3823,VALID,16,VALID,0,
2011-03-17, 03:17:05,VALID,1007.4,VALID,0,VALID,104,VALID,0,VALID,23.4017,VALID,16,VALID,0,
2011-03-17, 03:18:05,VALID,1007.37,VALID,0,VALID,104,VALID,0,VALID,23.3805,VALID,16,VALID,0,
2011-03-17, 03:19:05,VALID,1007.38,VALID,0,VALID,104,VALID,0,VALID,23.3805,VALID,16,VALID,0,
2011-03-17, 03:20:05,VALID,1007.35,VALID,0,VALID,104,VALID,0,VALID,23.3805,VALID,16,VALID,0,
2011-03-17, 03:21:05,VALID,1007.33,VALID,0,VALID,104,VALID,0,VALID,23.3823,VALID,16,VALID,0,
2011-03-17, 03:22:05,VALID,1007.37,VALID,0,VALID,104,VALID,0,VALID,23.3823,VALID,16,VALID,0,
2011-03-17, 03:23:05,VALID,1007.32,VALID,0,VALID,104,VALID,0,VALID,23.361,VALID,16,VALID,0,
2011-03-17, 03:24:05,VALID,1007.36,VALID,0,VALID,104,VALID,0,VALID,23.361,VALID,16,VALID,0,
2011-03-17, 03:25:05,VALID,1007.33,VALID,0,VALID,104,VALID,0,VALID,23.3415,VALID,16,VALID,0,
2011-03-17, 03:26:05,VALID,1007.32,VALID,0,VALID,104,VALID,0,VALID,23.3823,VALID,16,VALID,0,
2011-03-17, 03:27:05,VALID,1007.3,VALID,0,VALID,104,VALID,0,VALID,23.3823,VALID,16,VALID,0,
2011-03-17, 03:28:05,VALID,1007.3,VALID,0,VALID,104,VALID,0,VALID,23.4017,VALID,16,VALID,0,
2011-03-17, 03:29:05,VALID,1007.28,VALID,0,VALID,104,VALID,0,VALID,23.4017,VALID,16,VALID,0.0855469,
2011-03-17, 03:30:05,VALID,1007.28,VALID,0,VALID,104,VALID,0,VALID,23.4212,VALID,16,VALID,0,
2011-03-17, 03:31:05,VALID,1007.26,VALID,0,VALID,104,VALID,0.105969,VALID,23.4,VALID,16,VALID,0,
2011-03-17, 03:32:05,VALID,1007.24,VALID,0,VALID,104,VALID,0,VALID,23.4407,VALID,16,VALID,0,
2011-03-17, 03:33:05,VALID,1007.24,VALID,0,VALID,104,VALID,0,VALID,23.4389,VALID,16,VALID,0.119531,
2011-03-17, 03:34:05,VALID,1007.23,VALID,0,VALID,104,VALID,0,VALID,23.4389,VALID,52,VALID,0.654297,
2011-03-17, 03:35:05,VALID,1007.23,VALID,0,VALID,104,VALID,0,VALID,23.4389,VALID,62,VALID,0.714844,
2011-03-17, 03:36:05,VALID,1007.21,VALID,0,VALID,104,VALID,0,VALID,23.4389,VALID,62,VALID,0.283594,
2011-03-17, 03:37:05,VALID,1007.22,VALID,0,VALID,104,VALID,0,VALID,23.4602,VALID,62,VALID,0.0484375,
2011-03-17, 03:38:05,VALID,1007.24,VALID,0,VALID,104,VALID,0,VALID,23.4797,VALID,62,VALID,0.341016,
2011-03-17, 03:39:05,VALID,1007.22,VALID,0,VALID,104,VALID,0,VALID,23.4584,VALID,62,VALID,0.173047,
2011-03-17, 03:40:05,VALID,1007.24,VALID,0,VALID,104,VALID,0,VALID,23.4797,VALID,62,VALID,0,
2011-03-17, 03:41:05,VALID,1007.26,VALID,0,VALID,104,VALID,0,VALID,23.4992,VALID,62,VALID,0,
2011-03-17, 03:42:05,VALID,1007.26,VALID,0,VALID,104,VALID,0,VALID,23.4992,VALID,62,VALID,0,
2011-03-17, 03:43:05,VALID,1007.26,VALID,0,VALID,104,VALID,0,VALID,23.5381,VALID,62,VALID,0,
2011-03-17, 03:44:05,VALID,1007.27,VALID,0,VALID,104,VALID,0,VALID,23.5381,VALID,62,VALID,0,
2011-03-17, 03:45:05,VALID,1007.29,VALID,0,VALID,104,VALID,0,VALID,23.5576,VALID,62,VALID,0,
2011-03-17, 03:46:05,VALID,1007.29,VALID,0,VALID,104,VALID,0,VALID,23.5363,VALID,62,VALID,0.465234,
2011-03-17, 03:47:05,VALID,1007.26,VALID,0,VALID,104,VALID,0,VALID,23.5381,VALID,62,VALID,0.585938,
2011-03-17, 03:48:05,VALID,1007.29,VALID,0,VALID,104,VALID,0,VALID,23.5169,VALID,62,VALID,0.473828,
2011-03-17, 03:49:05,VALID,1007.27,VALID,0,VALID,104,VALID,0,VALID,23.4779,VALID,110,VALID,0.662109,
2011-03-17, 03:50:05,VALID,1007.29,VALID,0,VALID,104,VALID,0,VALID,23.4992,VALID,110,VALID,0.447266,
2011-03-17, 03:51:05,VALID,1007.25,VALID,0,VALID,104,VALID,0,VALID,23.4797,VALID,110,VALID,0.473437,
2011-03-17, 03:52:05,VALID,1007.24,VALID,0,VALID,104,VALID,0,VALID,23.4779,VALID,113,VALID,0.540234,
2011-03-17, 03:53:05,VALID,1007.28,VALID,0,VALID,104,VALID,0,VALID,23.4779,VALID,113,VALID,0.186328,
2011-03-17, 03:54:05,VALID,1007.26,VALID,0,VALID,104,VALID,0.105969,VALID,23.4992,VALID,113,VALID,0.392969,
2011-03-17, 03:55:05,VALID,1007.23,VALID,0,VALID,104,VALID,0,VALID,23.4779,VALID,113,VALID,0.423438,
2011-03-17, 03:56:05,VALID,1007.25,VALID,0,VALID,104,VALID,0,VALID,23.4779,VALID,113,VALID,0.171484,
2011-03-17, 03:57:05,VALID,1007.27,VALID,0,VALID,104,VALID,0,VALID,23.4992,VALID,113,VALID,0.108984,
2011-03-17, 03:58:05,VALID,1007.27,VALID,0,VALID,104,VALID,0,VALID,23.4992,VALID,113,VALID,0.0808594,
2011-03-17, 03:59:05,VALID,1007.3,VALID,0,VALID,104,VALID,0.105969,VALID,23.5186,VALID,113,VALID,0.149219,
2011-03-17, 04:00:05,VALID,1007.3,VALID,0,VALID,104,VALID,0.105969,VALID,23.4974,VALID,113,VALID,0.0289063,